Change the Weather History Date:

Thursday, November 27, 2014

  Actual Average Record
Temperature  
Mean Temperature 32 °F -  
Max Temperature 34 °F 43 °F 66 °F (1976)
Min Temperature 30 °F 28 °F 12 °F (1994)
Degree Days  
Heating Degree Days 33    
Moisture  
Dew Point 28 °F    
Average Humidity 85    
Maximum Humidity 93    
Minimum Humidity 75    
Precipitation  
Precipitation 0.07 in - - ()
Snow  
Snow 0.00 in - - ()
Snow Depth 7.00 in    
Sea Level Pressure  
Sea Level Pressure 29.90 in    
Wind  
Wind Speed 10 mph (NW)    
Max Wind Speed 17 mph    
Max Gust Speed 24 mph    
Visibility 8 miles    
Events Snow    
Averages and records for this station are not official NWS values.
T = Trace of Precipitation, MM = Missing Value Source: NWS Daily Summary

Daily Weather History Graph

Daily Weather History Graph

Search for Another Location

Airport or City:

Trip Planner

Search our weather history database for the weather conditions in past years. The results will help you decide how hot, cold, wet, or windy it might be!

Date:

Astronomy

Nov. 27, 2014 Rise Set
Actual Time 6:50 AM EST 4:11 PM EST
Civil Twilight 6:18 AM EST 4:42 PM EST
Nautical Twilight 5:43 AM EST 5:17 PM EST
Astronomical Twilight 5:09 AM EST 5:51 PM EST
Moon 10:59 AM EST (11/27) 9:51 PM EST (11/27)
Length of Visible Light 10h 23m
Length of Day
9h 20m
Waxing Crescent, 31% of the Moon is Illuminated
Nov 27
Waxing Crescent
Nov 29
First Quarter
Dec 6
Full
Dec 14
Last Quarter
Dec 21
New

Hourly Weather History & Observations

Time (EST) Temp. Windchill Dew Point Humidity Pressure Visibility Wind Dir Wind Speed Gust Speed Precip Events Conditions
12:55 AM 32.4 °F 22.5 °F 29.8 °F 90% 29.71 in 1.2 mi NNW 13.8 mph 23.0 mph 0.01 in Snow Light Snow
1:55 AM 32.2 °F 21.8 °F 29.8 °F 91% 29.73 in 1.2 mi NNW 15.0 mph 24.2 mph 0.01 in Snow Light Snow
2:55 AM 32.4 °F 22.5 °F 30.4 °F 92% 29.74 in 1.0 mi NW 13.8 mph - 0.03 in Snow Light Snow
3:26 AM 32.0 °F 20.8 °F 30.2 °F 93% 29.73 in 2.0 mi NW 17.3 mph 24.2 mph N/A Snow Light Snow
3:55 AM 32.9 °F 24.1 °F 30.6 °F 91% 29.76 in 2.0 mi NW 11.5 mph - 0.02 in Snow Light Snow
3:59 AM 32.9 °F 24.1 °F 30.6 °F 91% 29.76 in 2.0 mi NW 11.5 mph - 0.02 in Snow Light Snow
4:14 AM 33.8 °F 24.8 °F 30.2 °F 87% 29.76 in 4.0 mi NNW 12.7 mph - N/A Snow Light Snow
4:55 AM 32.7 °F 24.5 °F 29.8 °F 89% 29.78 in 10.0 mi NNW 10.4 mph - 0.00 in Snow Light Snow
5:45 AM 32.0 °F 23.6 °F 28.4 °F 87% 29.80 in 10.0 mi NW 10.4 mph - N/A   Overcast
5:58 AM 32.0 °F 24.8 °F 28.6 °F 87% 29.82 in 10.0 mi NW 8.1 mph - 0.00 in   Mostly Cloudy
6:58 AM 32.7 °F 25.0 °F 29.1 °F 87% 29.83 in 10.0 mi NW 9.2 mph - N/A   Mostly Cloudy
7:58 AM 30.7 °F 24.9 °F 27.3 °F 87% 29.88 in 10.0 mi WNW 5.8 mph - N/A   Scattered Clouds
8:58 AM 33.4 °F 28.1 °F 29.3 °F 85% 29.90 in 10.0 mi WNW 5.8 mph - N/A   Scattered Clouds
9:58 AM 33.8 °F 28.6 °F 29.5 °F 84% 29.94 in 10.0 mi West 5.8 mph - N/A   Overcast
10:58 AM 33.6 °F 26.8 °F 29.3 °F 84% 29.95 in 10.0 mi West 8.1 mph - N/A   Overcast
11:58 AM 34.0 °F 27.2 °F 29.1 °F 82% 29.94 in 10.0 mi WNW 8.1 mph - N/A   Overcast
12:58 PM 34.2 °F 27.5 °F 29.3 °F 82% 29.94 in 10.0 mi West 8.1 mph - N/A   Overcast
1:58 PM 34.3 °F 30.2 °F 29.8 °F 84% 29.95 in 10.0 mi West 4.6 mph - N/A   Overcast
2:28 PM 33.8 °F 28.6 °F 30.2 °F 87% 29.94 in 10.0 mi WNW 5.8 mph - N/A   Overcast
2:58 PM 34.0 °F 28.8 °F 29.3 °F 83% 29.96 in 10.0 mi West 5.8 mph - N/A   Overcast
3:58 PM 33.6 °F 29.4 °F 28.9 °F 83% 29.97 in 10.0 mi West 4.6 mph - N/A   Overcast
4:58 PM 33.3 °F 28.9 °F 28.9 °F 84% 29.98 in 10.0 mi West 4.6 mph - N/A   Overcast
5:58 PM 32.9 °F 27.5 °F 28.0 °F 82% 29.99 in 10.0 mi West 5.8 mph - N/A   Overcast
6:58 PM 32.4 °F 27.9 °F 27.9 °F 83% 30.00 in 10.0 mi WNW 4.6 mph - N/A   Overcast
7:58 PM 31.8 °F - 28.2 °F 87% 30.01 in 10.0 mi WNW 2.3 mph - N/A   Overcast
8:58 PM 32.7 °F 25.7 °F 26.6 °F 78% 30.01 in 10.0 mi North 8.1 mph - N/A   Overcast
9:25 PM 32.0 °F 23.6 °F 24.8 °F 75% 30.00 in 7.0 mi North 10.4 mph - N/A Snow Light Snow
9:58 PM 31.3 °F 22.1 °F 24.3 °F 75% 30.01 in 10.0 mi North 11.5 mph - 0.00 in   Overcast
10:35 PM 30.2 °F 21.9 °F 23.0 °F 75% 30.00 in 10.0 mi North 9.2 mph - N/A Snow Light Snow
10:58 PM 30.6 °F 21.2 °F 23.7 °F 76% 30.01 in 10.0 mi North 11.5 mph - 0.00 in Snow Light Snow
11:58 PM 30.2 °F 22.6 °F 24.3 °F 79% 30.01 in 7.0 mi North 8.1 mph - 0.00 in Snow Light Snow